Overview Statistics Trail Chart Weather Telemetry Raw packets
 

This is the latest recevied weather packets stored in our database for station/object SP4MGL-10. If no packets are shown the sender has not sent any weather packets the latest 10 day(s).

<< 1 2 3 4 5 6 >>
Time Temp. Humidity Pressure Rain* Wind** Luminosity Snow
1788436311 21.67° C 51% 1018 hPa - - - -
1788435411 21.67° C 51% 1018.1 hPa - - - -
1788434511 21.67° C 51% 1018.1 hPa - - - -
1788433611 23.33° C 48% 1018.5 hPa - - - -
1788432711 22.78° C 49% 1018.5 hPa - - - -
1788431811 20.56° C 59% 1018.5 hPa - - - -
1788430910 20° C 60% 1018.7 hPa - - - -
1788430010 18.89° C 61% 1018.7 hPa - - - -
1788429110 19.44° C 62% 1018.8 hPa - - - -
1788428210 18.89° C 65% 1018.8 hPa - - - -
1788427310 18.89° C 65% 1019.1 hPa - - - -
1788426410 18.33° C 69% 1019 hPa - - - -
1788425510 18.33° C 72% 1019.2 hPa - - - -
1788424610 17.78° C 72% 1019.3 hPa - - - -
1788423710 17.22° C 76% 1019.4 hPa - - - -
1788422809 16.67° C 80% 1019.5 hPa - - - -
1788421909 16.67° C 79% 1019.5 hPa - - - -
1788421009 16.11° C 84% 1019.5 hPa - - - -
1788420109 15.56° C 87% 1019.4 hPa - - - -
1788419209 15° C 94% 1019.4 hPa - - - -
1788418309 14.44° C 97% 1019.4 hPa - - - -
1788417409 13.89° C 97% 1019.3 hPa - - - -
1788416509 13.89° C 100% 1019.4 hPa - - - -
1788415609 13.33° C 100% 1019.4 hPa - - - -
1788414709 12.78° C 100% 1019.3 hPa - - - -

* Rain since midnight (hover to see other rain measurements)
** Current wind speed in m/s (hover to see current wind gust speed)